Regional Weather Roundup
Issued by NWS New Orleans/Baton Rouge, LA

Home | Current Version | Previous Version | Graphics & Text | Print | Product List | Glossary On
Versions: 1 2 3 4 5 6 7 8 9 10 11 12 13 14 15 16 17 18 19 20 21 22 23 24 25 26 27 28 29 30 31 32 33 34 35 36 37 38 39 40 41 42 43 44 45 46 47 48 49 50
091
ASUS44 KLIX 300405
RWRLIX
NEW ORLEANS REGIONAL WEATHER ROUNDUP
NATIONAL WEATHER SERVICE NEW ORLEANS LA
1100 PM CDT WED OCT 29 2014

NOTE: "FAIR" INDICATES FEW OR NO CLOUDS BELOW 12,000 FEET WITH NO
      SIGNIFICANT WEATHER AND/OR OBSTRUCTIONS TO VISIBILITY.
      SKY/WX - SKY CONDITION AND SIGNIFICANT WEATHER.
      TMP - AIR TEMPERATURE.     DP    - DEWPOINT TEMPERATURE.
      RH  - RELATIVE HUMIDITY.   PRES  - PRESSURE.
      HI  - HEAT INDEX.          WCI   - WIND CHILL INDEX.

*  THESE STATIONS ARE NOT NWS OR FAA STATIONS AND ARE NOT UNDER
   NWS QUALITY CONTROL.

LAZ038-040-048-061>063-065>067-069-300500-
SOUTHEAST LOUISIANA

CITY           SKY/WX    TMP DP  RH WIND       PRES   REMARKS
N.O. AUDUBON     N/A     73  64  73 MISG        N/A
N.O. INTL ARPT CLOUDY    72  61  68 NE15      30.07S
N.O. LAKEFRONT CLOUDY    73  63  70 N16       30.08R
N.O. DOWNTOWN* MOCLDY    72  59  64 N8        30.07F
SLIDELL        PTCLDY    67  59  75 N9        30.07R
BATON ROUGE    CLOUDY    64  54  69 NE6       30.11R
BOOTHVILLE     MOCLDY    74  70  87 N8        30.04S
BELLE CHASSE   CLOUDY    72  62  71 NE8       30.06R
BOGALUSA*        N/A     62  52  70 NE5       30.11R
NEW ROADS*       N/A     59  53  80 N7        30.11S
GONZALES*      MOCLDY    66  64  91 N6        30.09S
HAMMOND*       NOT AVBL
HOUMA*         PTCLDY    69  65  88 N7        30.07S
PORT FOURCHON* CLOUDY    73  70  88 N5G13     30.08S

$$

MSZ070-080>082-300500-
SOUTHERN MISSISSIPPI

CITY           SKY/WX    TMP DP  RH WIND       PRES   REMARKS
MCCOMB         CLEAR     60  47  61 N6        30.11S
GULFPORT       CLEAR     68  59  73 N12       30.06S
BILOXI         PTCLDY    67  60  79 NE16G22   30.06S
PASCAGOULA     CLOUDY    67  58  72 N14       30.07R

$$

COASTAL OBSERVATIONS
LAKE AND NEARSHORE STATIONS

STATION/POSITION TIME  TEMP    WIND        PRES    WAVE
                       AIR SEA DIR/SP/G            HT/PER
                 (UTC) (F)     (DEG/KT/KT) (MB)    (FT/S)
PASCAGOULA       0400   69      10/ 11/ 16 1017.2
WAVELAND YACHT   0400   70      20/ 13/ 16 1017.4
GRAND ISLE       0400   75 78   10/ 12/ 16 1017.8
SOUTHWEST PASS   0400   72 78              1017.4
NEW CANAL        0400   72 72   30/ 18/ 19 1018.6
SHELL BEACH      0400   72 71   20/ 16/ 18 1017.6

OFFSHORE STATIONS

STATION/POSITION TIME  TEMP    WIND        PRES    WAVE
                       AIR SEA DIR/SP/G            HT/PER
                 (UTC) (F)     (DEG/KT/KT) (MB)    (FT/S)
64 S DAUPHIN ISL 0335   75 78  280/  6/  8 1017.2    2/ 7

$$




USA.gov is the U.S. government's official web portal to all federal, state and local government web resources and services.